Regional Weather Roundup
Issued by NWS

Home | Current Version | Previous Version | Graphics & Text | Print | Product List | Glossary On
Versions: 1 2 3 4 5 6 7 8 9 10 11 12 13 14 15 16 17 18 19 20 21 22 23 24 25 26 27 28 29 30 31 32 33 34 35 36 37 38 39 40 41 42 43 44 45 46 47 48 49 50
000
ASUS43 KIND 220600
RWRIN

WEATHER ROUNDUP FOR INDIANA
NATIONAL WEATHER SERVICE INDIANAPOLIS IN
200 AM EDT TUE AUG 22 2017

NOTE: "FAIR" INDICATES FEW OR NO CLOUDS BELOW 12,000 FEET WITH NO
SIGNIFICANT WEATHER AND/OR OBSTRUCTIONS TO VISIBILITY.

* - STATION DOES NOT REPORT WEATHER SUCH AS PRECIPITATION OR FOG.

+ - STATION NOT QUALITY CONTROLLED BY THE NATIONAL WEATHER SERVICE.
    USE DATA WITH CAUTION...ESPECIALLY DEWPOINT AND RELATIVE
    HUMIDITY OBSERVATIONS.

INZ001>003-010>013-019-020-220700-
NORTHWEST INDIANA

CITY           SKY/WX    TMP DP  RH WIND       PRES   REMARKS
MICHIGAN CITY+ HVY RAIN  70  70 100 SW7G18    29.96R
MONTICELLO +   CLOUDY    73  69  90 S8        29.95F
6HR MIN TEMP:  73; 6HR MAX TEMP:  81;

VALPARAISO     RAIN      73  72  94 W10       29.95R FOG

$$

LMZ046-743>745-220700-
SOUTHERN LAKE MICHIGAN

STATION/POSITION TIME  TEMP    WIND        PRES    WAVE
                       AIR SEA DIR/SP/G            HT
                 (UTC) (F)     (DEG/KT/KT) (MB)    (FT)
BURNS HARBOR     0540   70     220/ 12/ 20 1013.5S
MICHIGAN CITY    0530   69                   N/A
5NW MICH CITY    0550   71 74  220/ 17/ 25   N/A     2

$$

INZ004-005-014>016-021>024-220700-
NORTH CENTRAL INDIANA

CITY           SKY/WX    TMP DP  RH WIND       PRES   REMARKS
GOSHEN         CLOUDY    73  67  81 SW9       29.94F
6HR MIN TEMP:  73; 6HR MAX TEMP:  80;

PERU/GRISSOM   CLOUDY    72  71  95 S8        29.96F
6HR MIN TEMP:  72; 6HR MAX TEMP:  80;

SOUTH BEND     CLOUDY    73  71  93 SW9       29.93F
6HR MIN TEMP:  73; 6HR MAX TEMP:  81;


$$

INZ006>009-017-018-025>027-220700-
NORTHEAST INDIANA

CITY           SKY/WX    TMP DP  RH WIND       PRES   REMARKS
FORT WAYNE     MOCLDY    71  68  90 SW8       29.98F
6HR MIN TEMP:  71; 6HR MAX TEMP:  82;


$$

INZ028-029-035-036-043>045-051>053-220700-
WEST CENTRAL INDIANA

CITY           SKY/WX    TMP DP  RH WIND       PRES   REMARKS
LAFAYETTE      MOCLDY    72  69  90 VRB3      29.94F
6HR MIN TEMP:  72; 6HR MAX TEMP:  79;

TERRE HAUTE    CLOUDY    74  69  85 S10       29.98F
6HR MIN TEMP:  70; 6HR MAX TEMP:  76;


$$

INZ030>032-037>040-046>048-054>057-064-065-220700-
CENTRAL INDIANA

CITY           SKY/WX    TMP DP  RH WIND       PRES   REMARKS
GREENWOOD *+   CLEAR    N/A N/A N/A S5        30.02F
INDIANAPOLIS   CLOUDY    73  70  90 S8        29.99F
6HR MIN TEMP:  73; 6HR MAX TEMP:  77;

-EAGLE CREEK   PTCLDY    74  70  87 CALM      30.00S
6HR MIN TEMP:  74; 6HR MAX TEMP:  79;

KOKOMO +       CLOUDY    72  69  90 S8        29.99F
6HR MIN TEMP:  71; 6HR MAX TEMP:  78;

MT COMFORT *+  PTCLDY    70  68  94 S3        30.02S
SHELBYVILLE    CLEAR     75  69  81 S8        30.00F
6HR MIN TEMP:  72; 6HR MAX TEMP:  78;


$$

INZ033-034-041-042-049-050-058-059-220700-
EAST CENTRAL INDIANA

CITY           SKY/WX    TMP DP  RH WIND       PRES   REMARKS
MUNCIE         CLEAR     76  68  76 S7        30.00F
6HR MIN TEMP:  76; 6HR MAX TEMP:  81;

RICHMOND +     CLOUDY    70  70 100 S6        30.04F FOG

$$

INZ060-061-067>069-081>083-085>088-220700-
SOUTHWEST INDIANA

CITY           SKY/WX    TMP DP  RH WIND       PRES   REMARKS
EVANSVILLE     CLEAR     77  72  84 SW6       30.02F
6HR MIN TEMP:  74; 6HR MAX TEMP:  78; 6HR PCP:  0.03;

HUNTINGBURG +  CLEAR     72  71  97 CALM      30.03F
6HR MIN TEMP:  72; 6HR MAX TEMP:  77; 6HR PCP:  0.02;


$$

INZ062-063-066-070>080-084-089>092-220700-
SOUTH CENTRAL AND SOUTHEAST INDIANA

CITY           SKY/WX    TMP DP  RH WIND       PRES   REMARKS
BLOOMINGTON    PTCLDY    74  68  81 S8        30.02F
6HR MIN TEMP:  72; 6HR MAX TEMP:  76;

MADISON *+     CLEAR     73  68  83 S3        30.06F

$$





USA.gov is the U.S. government's official web portal to all federal, state and local government web resources and services.